Regional Weather Roundup
Issued by NWS Mobile, AL

Home | Current Version | Previous Version | Text Only | Print | Product List | Glossary On
Versions: 1 2 3 4 5 6 7 8 9 10 11 12 13 14 15 16 17 18 19 20 21 22 23 24 25 26 27
000
ASUS44 KMOB 241613
RWRMOB
REGIONAL WEATHER ROUNDUP
NATIONAL WEATHER SERVICE MOBILE AL
1100 AM CDT WED AUG 24 2016

NOTE: "FAIR" INDICATES FEW OR NO CLOUDS BELOW 12,000 FEET WITH NO
      SIGNIFICANT WEATHER AND/OR OBSTRUCTIONS TO VISIBILITY.

  * THESE STATIONS ARE PART OF THE UNIVERSITY OF SOUTH ALABAMA
    MESONET AND ARE NOT UNDER NWS OR FAA QUALITY CONTROL.

ALZ061>064-241700-
COASTAL ALABAMA

CITY           SKY/WX    TMP DP  RH WIND       PRES   REMARKS
MOBILE REG APT PTSUNNY   90  78  68 NE5       30.18F HX 104
BROOKLEY FIELD MOSUNNY   87  80  79 NE5       30.19S HX 103
USA CAMPUS*    NOT AVBL
DOG RIVER*     NOT AVBL


CITY           SKY/WX    TMP DP  RH WIND       PRES   REMARKS
MOUNT VERNON*  NOT AVBL
SARALAND*      NOT AVBL
BAY MINETTE*   NOT AVBL
LOXLEY*        NOT AVBL
ROBERTSDALE*   NOT AVBL
FAIRHOPE*      NOT AVBL
ELBERTA*       NOT AVBL
FOLEY*         NOT AVBL
GRAND BAY*     NOT AVBL
DAUPHIN ISLND* NOT AVBL
BON SCOUR NWR* NOT AVBL
GULF SHORES    PTSUNNY   88  81  80 E7        30.17S HX 106

$$

ALZ051>060-241700-
INTERIOR SOUTHWEST AND SOUTH CENTRAL ALABAMA

CITY           SKY/WX    TMP DP  RH WIND       PRES   REMARKS
GREENVILLE     SUNNY     88  74  63 VRB6      30.21F HX  96
EVERGREEN      MOSUNNY   87  76  69 VRB5      30.21S HX  97
CASTLEBERRY*   NOT AVBL
ATMORE*        NOT AVBL
DIXIE*         NOT AVBL
ANDALUSIA/OPP  MOSUNNY   92  77  61 VRB3      30.21S HX 105
ANDALUSIA*     NOT AVBL
FLORALA APT    MOSUNNY   87  76  69 SE9       30.22F HX  97
FLORALA*       NOT AVBL

$$

FLZ001>006-241700-
WESTERN FLORIDA PANHANDLE

CITY           SKY/WX    TMP DP  RH WIND       PRES   REMARKS
PENSACOLA      MOSUNNY   88  77  69 E7        30.17S HX 100
NAS PENSACOLA  PTSUNNY   86  79  79 E9        30.17R HX  99
MILTON         MOSUNNY   88  77  69 SE8       30.18S HX 100
WHTNG S FIELD  MOSUNNY   90  78  68 E6        30.18S HX 104


CITY           SKY/WX    TMP DP  RH WIND       PRES   REMARKS
WALNUT HILL*   NOT AVBL
JAY*           NOT AVBL
DUKE FIELD     MOSUNNY   89  75  63 SE5       30.17F HX  98
CRESTVIEW      PTSUNNY   89  76  65 VRB3      30.20S HX 100
VALPARAISO     MOSUNNY   88  77  69 SE7       30.17F HX 100
DESTIN         PTSUNNY   90  81  74 NE7       30.17F HX 109

$$

MSZ076-079-241700-
INTERIOR SOUTHEAST MISSISSIPPI

CITY           SKY/WX    TMP DP  RH WIND       PRES   REMARKS
LEAKESVILLE*   NOT AVBL
AGRICOLA*      NOT AVBL

$$

MARINE OBSERVATIONS

STATION/POSITION TIME  TEMP    WIND        PRES    WAVE
                       AIR SEA DIR/SP/G            HT/PER
                 (UTC) (F)     (DEG/KT/KT) (MB)    (FT/S)
PASCAGOULA       1500   89     100/  1/  2 1021.3R
PETIT BOIS ISLND 1500   87      60/  8/ 10 1022.2R
GRAND BAY        1400   85      80/  8     1023.0
KATRINA CUT      1500   84      80/  8     1022.4R
CEDAR POINT      1500   84      90/  8     1021.7R
E DAUPHIN ISLAND 1600   86     110/ 11/ 12 1021.1F
MIDDLE BAY LIGHT 1500   85      80/  6     1021.7R
USCG MOBILE BAY  1500   84 88  120/  4/  6 1022.4R
STATE DOCKS      1500   87 86              1021.7R
MEAHER PARK      1500   86     100/  5     1021.7S
WEEKS BAY        1400   85                   N/A
FORT MORGAN      1500   86     120/ 11/ 13 1020.9R
12 S ORANGE BCH  1550   85 88   90/ 12/ 14 1021.3R   1/ 3
PENSACOLA BAY    1500   88 88  140/  3/  5 1021.9S
64 S DAUPHIN ISL 1500   86 89   70/  8/ 10 1020.9R
67 S FORT MORGAN 1530   87      50/ 10     1021.3R

$$

SELECTED LOCATIONS ACROSS THE REGION

CITY           SKY/WX    TMP DP  RH WIND       PRES   REMARKS
NEW ORLEANS    CLOUDY    89  77  67 NE6       30.17R HX 101
GULFPORT       MOSUNNY   92  77  61 E7        30.15F HX 105
PASCAGOULA AP  SUNNY     91  80  70 N5        30.16F HX 109
PASCAGOULA*    NOT AVBL
HATTIESBURG    MOSUNNY   89  75  63 E6        30.18F HX  99
LAUREL         CLOUDY   N/A N/A N/A SE5       30.20F
MERIDIAN       SUNNY     92  74  55 E5        30.20S HX 101
JACKSON        SUNNY     89  76  65 VRB3      30.19S HX 100
MONTGOMERY     MOSUNNY   91  74  57 E8        30.22F HX 100
TROY           MOSUNNY   85  76  74 SE6       30.23F
KINSTON*       NOT AVBL
GENEVA*        NOT AVBL
ASHFORD*       NOT AVBL
DOTHAN         MOSUNNY   84  78  82 NE7       30.26S HX  95
PANAMA CITY    PTSUNNY   88  77  69 E5        30.17S HX 100

$$





USA.gov is the U.S. government's official web portal to all federal, state and local government web resources and services.